Flag for U.S.A. Weather past 2 weeks in Anderson, South Carolina, U.S.A.

Now
60 °F

Clear.


Feels Like: 60 °F
Forecast: 44 / 65 °F
Wind: 7 mph from North

Location: Anderson County Airport

Current Time: Oct 21, 2014 at 9:53:53 PM

Latest Report: Oct 21, 2014 at 8:56 PM


Visibility: 10 mi

Pressure: 29.94 "Hg

Humidity: 56%

Dew point: 44 °F

Location of AndersonLocation

Historic Weather in Anderson — Graph

°F

Anderson temperature yesterday

Maximum temperature yesterday: 71 °F (at 3:56 PM)
Minimum temperature yesterday: 45 °F (at 4:56 AM)
Average temperature yesterday: 57 °F

Past Weeks' High & Low Weather Summary

 TemperatureHumidityPressure
High86 °F (Oct 8, 3:56 PM)100% (Oct 10, 3:59 AM)30.21 "Hg (Oct 10, 3:59 AM)
Low44 °F (Oct 19, 7:56 AM)31% (Oct 18, 3:56 PM)29.74 "Hg (Oct 14, 5:56 PM)
Average65 °F76%29.99 "Hg
* Reported Oct 6 7:56 PM — Oct 21 7:56 PM, Anderson, Weather by CustomWeather, © 2014

Note: Actual official high and low records may vary slightly from our data, if they occured in-between our weather recording intervals... More about our weather records

Advertising

Anderson weather history for previous 24 hours

 ConditionsComfort  
Time TempWeatherWind HumidityBarometerVisibility
7:56 PM
Oct 21
64 °FClear.6 mph54%29.93 "Hg10 mi
6:56 PM67 °FSunny.8 mph49%29.90 "Hg10 mi
5:56 PM71 °FSunny.13 mph41%29.88 "Hg10 mi
4:56 PM73 °FSunny.12 mph37%29.88 "Hg10 mi
3:56 PM74 °FSunny.12 mph36%29.87 "Hg10 mi
2:56 PM74 °FSunny.13 mph38%29.88 "Hg10 mi
1:56 PM74 °FSunny.15 mph41%29.90 "Hg10 mi
12:56 PM72 °FSunny.10 mph48%29.93 "Hg10 mi
11:56 AM70 °FSunny.10 mph49%29.96 "Hg10 mi
10:56 AMN/ASunny.8 mphN/A29.99 "Hg10 mi
9:56 AM61 °FSunny.7 mph70%29.98 "Hg10 mi
8:56 AM54 °FSunny.3 mph86%29.98 "Hg10 mi
7:56 AM47 °FClear.3 mph97%29.97 "Hg9 mi
6:56 AM49 °FClear.No wind93%29.96 "Hg10 mi
5:56 AM48 °FFog.5 mph96%29.96 "Hg2 mi
4:56 AM47 °FClear.3 mph93%29.95 "Hg10 mi
3:56 AM49 °FClear.3 mph97%29.96 "Hg10 mi
2:56 AM51 °FClear.No wind92%29.96 "Hg10 mi
1:56 AM51 °FClear.No wind96%29.97 "Hg10 mi
12:56 AM53 °FClear.No wind93%29.99 "Hg10 mi
11:56 PM
Oct 20
54 °FClear.3 mph93%30.00 "Hg10 mi
10:56 PM57 °FClear.3 mph83%29.99 "Hg10 mi
9:56 PM59 °FPassing clouds.No wind78%29.98 "Hg10 mi
Weather by CustomWeather, © 2014

See weather overviewHow to use our weather pages